Location: Newark
(44.7667°N, 11.5000°E)
Time: 13:33:29
(UTC+00:00)

OTV 5 (USA 277) - Visible Passes

Search period start: 15 October 2019 00:00
Search period end: 25 October 2019 00:00
Orbit: 310 x 324 km, 54.5° (Epoch: 08 October)

Date Brightness Start Highest point End Pass type
(mag) Time Alt. Az. Time Alt. Az. Time Alt. Az.
15 Oct ? 03:53:05 14° N 03:53:57 15° NNE 03:55:41 10° NE visible
16 Oct ? 04:07:19 15° NNW 04:08:47 22° NNE 04:11:03 10° E visible
17 Oct ? 04:21:37 16° NW 04:23:31 42° NNE 04:26:08 10° ESE visible
18 Oct ? 03:05:07 12° ENE 03:05:07 12° ENE 03:05:31 10° ENE visible
18 Oct ? 04:36:01 16° WNW 04:38:06 76° SW 04:40:49 10° SE visible
19 Oct ? 03:19:36 19° ENE 03:19:36 19° ENE 03:20:45 10° E visible
19 Oct ? 04:50:31 12° WNW 04:52:34 27° SW 04:54:56 10° SSE visible
20 Oct ? 03:34:13 27° ESE 03:34:13 27° ESE 03:35:39 10° ESE visible
20 Oct ? 05:06:00 10° WSW 05:06:52 11° SW 05:07:44 10° SSW visible
21 Oct ? 03:48:58 21° SSE 03:48:58 21° SSE 03:50:05 10° SSE visible
